Location: ???????
(55.4362°N, 38.1183°E)
Time: 03:51:12
(UTC+00:00)

Cosmos 1816 Rocket - Pass Details

Date: 17 June 2021
Orbit: 952 x 998 km, 82.9° (Epoch: 26 July)

Event Time Altitude Azimuth Distance (km) Brightness Sun altitude
Exits shadow 21:32:38 14° 190° (S) 2,393 5.9 -11.2°
Maximum altitude 21:38:00 89° 278° (W) 962 4.5 -11.1°
Drops below altitude 10° 21:44:11 10° 11° (NNE) 2,694 8.4 -11.1°
Sets 21:46:41 0° 12° (NNE) 3,646 9.6 -11.1°
